LNI672 WAAA-WALL

Flight info

Callsign LNI672
Flight time 0h 52m
Altitude 32000
Route MKS
Aircraft B738/M-SDE2E3FGHIRWXY/LB1

Departure

Time 2026-04-28 13:16
Airport Sultan Hasanuddin International Airport (WAAA)

Arrival

Time 2026-04-28 14:08
Airport Sultan Aji Muhammad Sulaiman Sepinggan International Airport (WALL)
Time Latitude Longitude Altitude Speed Heading
2026-04-28 12:53 -5.07660 119.54799 57 ft 0 kts 300°
2026-04-28 13:04 -5.07667 119.54811 -5 ft 2 kts 298°
2026-04-28 13:04 -5.07675 119.54826 -5 ft 2 kts 296°
2026-04-28 13:04 -5.07681 119.54841 -15 ft 2 kts 289°
2026-04-28 13:05 -5.07685 119.54857 -12 ft 2 kts 254°
2026-04-28 13:05 -5.07675 119.54869 -12 ft 2 kts 211°
2026-04-28 13:05 -5.07660 119.54878 -8 ft 2 kts 210°
2026-04-28 13:05 -5.07646 119.54886 -10 ft 2 kts 210°
2026-04-28 13:06 -5.07639 119.54890 -8 ft 0 kts 210°
2026-04-28 13:06 -5.07638 119.54891 -8 ft 0 kts 210°
2026-04-28 13:09 -5.07638 119.54890 -8 ft 0 kts 210°
2026-04-28 13:10 -5.07649 119.54884 -8 ft 4 kts 210°
2026-04-28 13:10 -5.07695 119.54857 -10 ft 11 kts 210°
2026-04-28 13:10 -5.07770 119.54814 -10 ft 14 kts 209°
2026-04-28 13:10 -5.07851 119.54769 -7 ft 13 kts 210°
2026-04-28 13:11 -5.07925 119.54722 -7 ft 13 kts 212°
2026-04-28 13:11 -5.08001 119.54734 -7 ft 12 kts 128°
2026-04-28 13:11 -5.08045 119.54807 -8 ft 12 kts 120°
2026-04-28 13:11 -5.08110 119.54842 -11 ft 12 kts 192°
2026-04-28 13:12 -5.08180 119.54805 -11 ft 11 kts 210°
2026-04-28 13:12 -5.08249 119.54765 -12 ft 12 kts 210°
2026-04-28 13:12 -5.08331 119.54718 40 ft 15 kts 210°
2026-04-28 13:12 -5.08437 119.54656 40 ft 21 kts 209°
2026-04-28 13:13 -5.08567 119.54582 40 ft 22 kts 210°
2026-04-28 13:13 -5.08695 119.54508 40 ft 21 kts 210°
2026-04-28 13:13 -5.08819 119.54436 40 ft 20 kts 209°
2026-04-28 13:13 -5.08940 119.54367 40 ft 20 kts 210°
2026-04-28 13:14 -5.09056 119.54300 40 ft 17 kts 210°
2026-04-28 13:14 -5.09161 119.54295 38 ft 16 kts 128°
2026-04-28 13:14 -5.09213 119.54391 41 ft 13 kts 95°
2026-04-28 13:14 -5.09186 119.54430 41 ft 0 kts 30°
2026-04-28 13:15 -5.09172 119.54438 41 ft 6 kts 30°
2026-04-28 13:15 -5.08985 119.54546 43 ft 67 kts 30°
2026-04-28 13:15 -5.08371 119.54901 39 ft 134 kts 30°
2026-04-28 13:16 -5.07425 119.55444 260 ft 169 kts 30°
2026-04-28 13:16 -5.06402 119.56025 994 ft 170 kts 27°
2026-04-28 13:16 -5.05234 119.56299 1593 ft 178 kts 355°
2026-04-28 13:16 -5.04004 119.55988 2002 ft 192 kts 347°
2026-04-28 13:17 -5.02611 119.55830 2242 ft 210 kts 359°
2026-04-28 13:17 -5.01105 119.55811 2412 ft 224 kts
2026-04-28 13:17 -4.99480 119.55825 2715 ft 240 kts
2026-04-28 13:17 -4.97759 119.55841 3101 ft 259 kts
2026-04-28 13:18 -4.95925 119.55853 3709 ft 267 kts 360°
2026-04-28 13:18 -4.94075 119.55582 4458 ft 272 kts 345°
2026-04-28 13:18 -4.92240 119.55087 5208 ft 275 kts 348°
2026-04-28 13:18 -4.90352 119.54728 5924 ft 277 kts 351°
2026-04-28 13:19 -4.88448 119.54394 6658 ft 280 kts 350°
2026-04-28 13:19 -4.86520 119.54042 7352 ft 283 kts 349°
2026-04-28 13:19 -4.84572 119.53675 8047 ft 286 kts 349°
2026-04-28 13:19 -4.82699 119.52989 8704 ft 291 kts 325°
2026-04-28 13:20 -4.81332 119.51512 9413 ft 293 kts 299°
2026-04-28 13:20 -4.80504 119.49639 10090 ft 296 kts 291°
2026-04-28 13:20 -4.79768 119.47647 10327 ft 316 kts 290°
2026-04-28 13:20 -4.79008 119.45505 10485 ft 336 kts 289°
2026-04-28 13:21 -4.78209 119.43250 10821 ft 348 kts 290°
2026-04-28 13:21 -4.77385 119.40946 11358 ft 353 kts 290°
2026-04-28 13:21 -4.76547 119.38621 11974 ft 356 kts 290°
2026-04-28 13:21 -4.75696 119.36279 12589 ft 359 kts 290°
2026-04-28 13:22 -4.74832 119.33914 13197 ft 363 kts 290°
2026-04-28 13:22 -4.73957 119.31525 13784 ft 367 kts 290°
2026-04-28 13:22 -4.73071 119.29111 14345 ft 370 kts 290°
2026-04-28 13:22 -4.72176 119.26677 14904 ft 374 kts 290°
2026-04-28 13:23 -4.71283 119.24250 15450 ft 378 kts 290°
2026-04-28 13:23 -4.70370 119.21767 16011 ft 381 kts 290°
2026-04-28 13:23 -4.69447 119.19260 16549 ft 385 kts 290°
2026-04-28 13:23 -4.68517 119.16732 16827 ft 386 kts 291°
2026-04-28 13:24 -4.67583 119.14193 16879 ft 392 kts 290°
2026-04-28 13:24 -4.66635 119.11616 17417 ft 395 kts 291°
2026-04-28 13:24 -4.65683 119.09029 18037 ft 396 kts 291°
2026-04-28 13:24 -4.64725 119.06428 18513 ft 399 kts 291°
2026-04-28 13:25 -4.63759 119.03804 18963 ft 403 kts 291°
2026-04-28 13:25 -4.62785 119.01158 19411 ft 406 kts 291°
2026-04-28 13:25 -4.61802 118.98490 19851 ft 410 kts 291°
2026-04-28 13:25 -4.60812 118.95802 20303 ft 413 kts 291°
2026-04-28 13:26 -4.59815 118.93094 20732 ft 416 kts 291°
2026-04-28 13:26 -4.58809 118.90365 21158 ft 419 kts 291°
2026-04-28 13:26 -4.57794 118.87611 21585 ft 422 kts 291°
2026-04-28 13:26 -4.56776 118.84847 22002 ft 425 kts 291°
2026-04-28 13:27 -4.55748 118.82057 22409 ft 428 kts 291°
2026-04-28 13:27 -4.54711 118.79246 22805 ft 431 kts 291°
2026-04-28 13:27 -4.53451 118.76520 23152 ft 433 kts 306°
2026-04-28 13:27 -4.51433 118.74307 23520 ft 430 kts 324°
2026-04-28 13:28 -4.48904 118.72725 23881 ft 428 kts 334°
2026-04-28 13:28 -4.46263 118.71332 24219 ft 430 kts 335°
2026-04-28 13:28 -4.43593 118.69957 24526 ft 433 kts 335°
2026-04-28 13:28 -4.40908 118.68569 24831 ft 436 kts 334°
2026-04-28 13:29 -4.38216 118.67159 25154 ft 438 kts 334°
2026-04-28 13:29 -4.35518 118.65729 25477 ft 440 kts 334°
2026-04-28 13:29 -4.32811 118.64284 25774 ft 442 kts 334°
2026-04-28 13:29 -4.30091 118.62827 26077 ft 444 kts 334°
2026-04-28 13:30 -4.27359 118.61362 26390 ft 446 kts 334°
2026-04-28 13:30 -4.24618 118.59892 26714 ft 448 kts 334°
2026-04-28 13:30 -4.21867 118.58418 27015 ft 450 kts 334°
2026-04-28 13:30 -4.19101 118.56938 27298 ft 452 kts 334°
2026-04-28 13:31 -4.13525 118.53956 27837 ft 456 kts 334°
2026-04-28 13:31 -4.10719 118.52454 28112 ft 458 kts 334°
2026-04-28 13:31 -4.07936 118.50965 28339 ft 461 kts 334°
2026-04-28 13:32 -4.05101 118.49447 28623 ft 463 kts 334°
2026-04-28 13:32 -4.02260 118.47925 28918 ft 463 kts 334°
2026-04-28 13:32 -3.99421 118.46404 29310 ft 462 kts 334°
2026-04-28 13:32 -3.96590 118.44888 29720 ft 461 kts 334°
2026-04-28 13:33 -3.93753 118.43369 29853 ft 464 kts 334°
2026-04-28 13:33 -3.90906 118.41845 29859 ft 465 kts 334°
2026-04-28 13:33 -3.85227 118.38804 29850 ft 459 kts 334°
2026-04-28 13:34 -3.79590 118.35788 29867 ft 460 kts 334°
2026-04-28 13:34 -3.73937 118.32763 29867 ft 461 kts 334°
2026-04-28 13:35 -3.68274 118.29734 29865 ft 461 kts 334°
2026-04-28 13:35 -3.62615 118.26707 29864 ft 461 kts 334°
2026-04-28 13:36 -3.56958 118.23681 29864 ft 461 kts 334°
2026-04-28 13:36 -3.51258 118.20747 29865 ft 460 kts 335°
2026-04-28 13:37 -3.45541 118.17851 29863 ft 461 kts 334°
2026-04-28 13:37 -3.39864 118.14873 29863 ft 461 kts 334°
2026-04-28 13:38 -3.34238 118.11871 29867 ft 461 kts 333°
2026-04-28 13:38 -3.28582 118.08845 29870 ft 461 kts 333°
2026-04-28 13:39 -3.22922 118.05822 29864 ft 461 kts 333°
2026-04-28 13:39 -3.17262 118.02801 29870 ft 461 kts 333°
2026-04-28 13:40 -3.11570 117.99765 29912 ft 468 kts 333°
2026-04-28 13:40 -3.08683 117.98225 30043 ft 472 kts 333°
2026-04-28 13:40 -3.05781 117.96676 30284 ft 472 kts 333°
2026-04-28 13:41 -3.02899 117.95120 30627 ft 471 kts 332°
2026-04-28 13:41 -3.00055 117.93511 30976 ft 469 kts 332°
2026-04-28 13:41 -2.97221 117.91898 31265 ft 469 kts 329°
2026-04-28 13:41 -2.94587 117.89954 31516 ft 471 kts 322°
2026-04-28 13:42 -2.92092 117.87828 31816 ft 470 kts 320°
2026-04-28 13:42 -2.89632 117.85658 31859 ft 474 kts 320°
2026-04-28 13:42 -2.84666 117.81331 31866 ft 471 kts 321°
2026-04-28 13:43 -2.79680 117.77114 31877 ft 469 kts 321°
2026-04-28 13:43 -2.74689 117.72933 31876 ft 467 kts 321°
2026-04-28 13:44 -2.69705 117.68753 31879 ft 467 kts 321°
2026-04-28 13:44 -2.64591 117.64778 31858 ft 464 kts 335°
2026-04-28 13:45 -2.58586 117.62498 31882 ft 462 kts 342°
2026-04-28 13:45 -2.52533 117.60303 31880 ft 463 kts 341°
2026-04-28 13:46 -2.46481 117.58051 31876 ft 465 kts 341°
2026-04-28 13:46 -2.43457 117.56912 31728 ft 464 kts 341°
2026-04-28 13:46 -2.40447 117.55775 31344 ft 459 kts 341°
2026-04-28 13:47 -2.37477 117.54651 30900 ft 454 kts 341°
2026-04-28 13:47 -2.34533 117.53538 30476 ft 451 kts 341°
2026-04-28 13:47 -2.31610 117.52433 30030 ft 448 kts 341°
2026-04-28 13:47 -2.28707 117.51337 29498 ft 445 kts 341°
2026-04-28 13:48 -2.25823 117.50248 29017 ft 441 kts 341°
2026-04-28 13:48 -2.22965 117.49169 28534 ft 437 kts 341°
2026-04-28 13:48 -2.20132 117.48099 28064 ft 433 kts 341°
2026-04-28 13:48 -2.17324 117.47040 27606 ft 430 kts 341°
2026-04-28 13:49 -2.14540 117.45989 27153 ft 426 kts 341°
2026-04-28 13:49 -2.11815 117.44961 26712 ft 423 kts 341°
2026-04-28 13:49 -2.09073 117.43927 26266 ft 420 kts 341°
2026-04-28 13:49 -2.06352 117.42900 25823 ft 417 kts 341°
2026-04-28 13:50 -2.03648 117.41880 25372 ft 414 kts 341°
2026-04-28 13:50 -2.00959 117.40865 24925 ft 412 kts 342°
2026-04-28 13:50 -1.98285 117.39857 24473 ft 410 kts 342°
2026-04-28 13:50 -1.95622 117.38852 24030 ft 408 kts 342°
2026-04-28 13:51 -1.92973 117.37853 23584 ft 406 kts 342°
2026-04-28 13:51 -1.90335 117.36858 23085 ft 404 kts 342°
2026-04-28 13:51 -1.87713 117.35869 22612 ft 401 kts 342°
2026-04-28 13:51 -1.85114 117.34889 22156 ft 398 kts 342°
2026-04-28 13:52 -1.83371 117.34231 21852 ft 395 kts 341°
2026-04-28 13:52 -1.80802 117.33263 21364 ft 394 kts 341°
2026-04-28 13:52 -1.78238 117.32296 20866 ft 392 kts 341°
2026-04-28 13:52 -1.75688 117.31334 20374 ft 391 kts 341°
2026-04-28 13:53 -1.73146 117.30375 19888 ft 390 kts 341°
2026-04-28 13:53 -1.70643 117.29432 19393 ft 389 kts 341°
2026-04-28 13:53 -1.68113 117.28477 18900 ft 389 kts 341°
2026-04-28 13:53 -1.65584 117.27523 18406 ft 388 kts 341°
2026-04-28 13:54 -1.63061 117.26571 17871 ft 385 kts 340°
2026-04-28 13:54 -1.60556 117.25626 17342 ft 375 kts 340°
2026-04-28 13:54 -1.58183 117.24730 16857 ft 365 kts 340°
2026-04-28 13:54 -1.55838 117.23845 16407 ft 356 kts 340°
2026-04-28 13:55 -1.53543 117.22979 15969 ft 350 kts 340°
2026-04-28 13:55 -1.51280 117.22126 15531 ft 346 kts 340°
2026-04-28 13:55 -1.49024 117.21275 15101 ft 348 kts 340°
2026-04-28 13:55 -1.46755 117.20421 14649 ft 350 kts 340°
2026-04-28 13:56 -1.44477 117.19562 14194 ft 348 kts 340°
2026-04-28 13:56 -1.42220 117.18710 13755 ft 346 kts 340°
2026-04-28 13:56 -1.39949 117.17857 13281 ft 351 kts 340°
2026-04-28 13:56 -1.37663 117.16998 12821 ft 351 kts 340°
2026-04-28 13:57 -1.35498 117.15874 12345 ft 353 kts 321°
2026-04-28 13:57 -1.33946 117.14018 12001 ft 349 kts 299°
2026-04-28 13:57 -1.33201 117.11712 11414 ft 353 kts 276°
2026-04-28 13:57 -1.33314 117.09263 10827 ft 356 kts 257°
2026-04-28 13:58 -1.33966 117.06868 10220 ft 359 kts 253°
2026-04-28 13:58 -1.34682 117.04471 9833 ft 356 kts 253°
2026-04-28 13:58 -1.35370 117.02169 9807 ft 335 kts 253°
2026-04-28 13:58 -1.36006 116.99994 9621 ft 318 kts 253°
2026-04-28 13:59 -1.36600 116.97922 9424 ft 303 kts 253°
2026-04-28 13:59 -1.37162 116.95940 9238 ft 289 kts 253°
2026-04-28 13:59 -1.37696 116.94047 9058 ft 277 kts 253°
2026-04-28 13:59 -1.38208 116.92233 8881 ft 266 kts 253°
2026-04-28 14:00 -1.38710 116.90487 8716 ft 258 kts 251°
2026-04-28 14:00 -1.39301 116.88804 8554 ft 256 kts 249°
2026-04-28 14:00 -1.39921 116.87141 8186 ft 260 kts 249°
2026-04-28 14:00 -1.40568 116.85397 7589 ft 274 kts 249°
2026-04-28 14:01 -1.41232 116.83587 7002 ft 278 kts 249°
2026-04-28 14:01 -1.41894 116.81768 6424 ft 278 kts 249°
2026-04-28 14:01 -1.42554 116.79953 5828 ft 277 kts 249°
2026-04-28 14:01 -1.43158 116.78128 5219 ft 276 kts 259°
2026-04-28 14:02 -1.43033 116.76258 4604 ft 269 kts 291°
2026-04-28 14:02 -1.42060 116.74715 4007 ft 260 kts 316°
2026-04-28 14:02 -1.40618 116.73695 3424 ft 251 kts 336°
2026-04-28 14:02 -1.39043 116.73029 2864 ft 241 kts 339°
2026-04-28 14:03 -1.37589 116.72434 2698 ft 216 kts 340°
2026-04-28 14:03 -1.36217 116.72100 2514 ft 196 kts
2026-04-28 14:03 -1.34991 116.72493 2514 ft 179 kts 31°
2026-04-28 14:03 -1.34076 116.73301 2519 ft 175 kts 55°
2026-04-28 14:04 -1.33462 116.74344 2525 ft 174 kts 62°
2026-04-28 14:04 -1.32898 116.75423 2527 ft 176 kts 62°
2026-04-28 14:04 -1.32333 116.76507 2475 ft 177 kts 62°
2026-04-28 14:04 -1.31745 116.77594 2284 ft 176 kts 63°
2026-04-28 14:05 -1.31230 116.78658 2072 ft 164 kts 65°
2026-04-28 14:05 -1.30779 116.79667 1863 ft 154 kts 66°
2026-04-28 14:05 -1.30354 116.80646 1672 ft 153 kts 66°
2026-04-28 14:05 -1.29934 116.81621 1467 ft 152 kts 67°
2026-04-28 14:06 -1.29577 116.82572 1372 ft 144 kts 73°
2026-04-28 14:06 -1.29280 116.83543 1138 ft 149 kts 73°
2026-04-28 14:06 -1.28928 116.84513 925 ft 149 kts 67°
2026-04-28 14:06 -1.28538 116.85511 715 ft 157 kts 68°
2026-04-28 14:07 -1.28090 116.86502 524 ft 155 kts 66°
2026-04-28 14:07 -1.27670 116.87489 306 ft 154 kts 67°
2026-04-28 14:07 -1.27267 116.88442 70 ft 144 kts 67°
2026-04-28 14:07 -1.26897 116.89304 23 ft 123 kts 67°
2026-04-28 14:08 -1.26611 116.89981 22 ft 86 kts 67°
2026-04-28 14:08 -1.26492 116.90261 21 ft 35 kts 67°
2026-04-28 14:08 -1.26431 116.90409 21 ft 18 kts 67°
2026-04-28 14:08 -1.26338 116.90469 23 ft 11 kts 358°
2026-04-28 14:09 -1.26281 116.90441 22 ft 4 kts 312°
2026-04-28 14:09 -1.26264 116.90418 20 ft 4 kts 306°
2026-04-28 14:09 -1.26246 116.90393 20 ft 5 kts 306°
2026-04-28 14:09 -1.26218 116.90349 20 ft 10 kts 301°
2026-04-28 14:10 -1.26210 116.90283 20 ft 10 kts 251°
2026-04-28 14:10 -1.26238 116.90219 21 ft 10 kts 246°
2026-04-28 14:10 -1.26265 116.90157 20 ft 10 kts 246°
2026-04-28 14:10 -1.26290 116.90096 21 ft 9 kts 248°
2026-04-28 14:11 -1.26316 116.90036 20 ft 10 kts 246°
2026-04-28 14:11 -1.26343 116.89971 20 ft 10 kts 248°
2026-04-28 14:11 -1.26361 116.89926 21 ft 3 kts 248°
2026-04-28 14:11 -1.26352 116.89909 20 ft 4 kts 321°
2026-04-28 14:12 -1.26315 116.89894 20 ft 5 kts 335°
2026-04-28 14:12 -1.26301 116.89888 22 ft 0 kts 335°